Weather History for PASC - July, 2013

Change the Weather History Date:

Monday, July 1, 2013

  Actual Average Record
Temperature  
Mean Temperature 44 °F -  
Max Temperature 52 °F 52 °F 71 °F (1997)
Min Temperature 37 °F 36 °F 30 °F (1989)
Degree Days  
Heating Degree Days 21    
Moisture  
Dew Point 39 °F    
Average Humidity 86    
Maximum Humidity 100    
Minimum Humidity 71    
Precipitation  
Precipitation 0.00 in - - ()
Sea Level Pressure  
Sea Level Pressure 29.52 in    
Wind  
Wind Speed 14 mph (ENE)    
Max Wind Speed 20 mph    
Max Gust Speed -    
Visibility 9 miles    
Events      
Averages and records for this station are not official NWS values.
T = Trace of Precipitation, MM = Missing Value Source: NWS Daily Summary

Daily Weather History Graph

Daily Weather History Graph

Search for Another Location

Airport or City:

Trip Planner

Search our weather history database for the weather conditions in past years. The results will help you decide how hot, cold, wet, or windy it might be!

Date:

Astronomy

Dec. 31, 1969 Rise Set
Actual Time Sun does not rise Sun does not rise
Civil Twilight Sun does not rise Sun does not rise
Nautical Twilight Sun does not rise Sun does not rise
Astronomical Twilight Sun does not rise Sun does not rise
Moon 12:30 AM AKDT (7/1) 5:54 PM AKDT (7/1)
Length of Visible Light 24h 00m
Length of Day
24h 00m
Waning Crescent, 34% of the Moon is Illuminated
Jul 1
Waning Crescent
Jul 7
New
Jul 15
First Quarter
Jul 22
Full
Jul 29
Last Quarter

Hourly Weather History & Observations

Time (AKDT) Temp. Windchill Dew Point Humidity Pressure Visibility Wind Dir Wind Speed Gust Speed Precip Events Conditions
12:45 AM 39.2 °F 30.8 °F 37.4 °F 93% 29.60 in 10.0 mi East 15.0 mph - N/A   Mostly Cloudy
12:53 AM 39.9 °F 31.8 °F 37.9 °F 93% 29.61 in 10.0 mi East 15.0 mph - N/A   Mostly Cloudy
1:53 AM 39.0 °F 29.3 °F 37.0 °F 93% 29.60 in 10.0 mi East 19.6 mph - N/A   Mostly Cloudy
2:53 AM 39.0 °F 30.3 °F 37.0 °F 93% 29.58 in 10.0 mi East 16.1 mph - N/A   Mostly Cloudy
3:10 AM 37.4 °F 27.8 °F 37.4 °F 100% 29.57 in 10.0 mi East 17.3 mph - N/A   Mostly Cloudy
3:53 AM 37.9 °F 28.5 °F 37.0 °F 97% 29.57 in 10.0 mi East 17.3 mph - N/A   Overcast
4:53 AM 37.9 °F 28.5 °F 37.0 °F 97% 29.55 in 10.0 mi East 17.3 mph - N/A   Overcast
5:28 AM 37.4 °F 27.2 °F 37.4 °F 100% 29.53 in 2.5 mi East 19.6 mph - N/A   Overcast
5:36 AM 37.4 °F 27.2 °F 37.4 °F 100% 29.53 in 1.2 mi East 19.6 mph - N/A   Overcast
5:53 AM 37.9 °F 28.2 °F 37.0 °F 97% 29.53 in 2.0 mi East 18.4 mph - N/A   Overcast
6:06 AM 37.4 °F 27.8 °F 37.4 °F 100% 29.52 in 4.0 mi East 17.3 mph - N/A   Overcast
6:53 AM 41.0 °F 33.5 °F 39.0 °F 93% 29.52 in 10.0 mi East 13.8 mph - N/A   Mostly Cloudy
7:36 AM 39.2 °F 30.8 °F 37.4 °F 93% 29.51 in 10.0 mi East 15.0 mph - N/A   Mostly Cloudy
7:53 AM 41.0 °F 33.5 °F 37.9 °F 89% 29.52 in 10.0 mi East 13.8 mph - N/A   Mostly Cloudy
8:53 AM 42.1 °F 36.1 °F 39.0 °F 89% 29.51 in 10.0 mi ENE 10.4 mph - N/A   Mostly Cloudy
9:53 AM 44.1 °F 37.1 °F 39.0 °F 82% 29.50 in 10.0 mi ENE 15.0 mph - N/A   Mostly Cloudy
10:53 AM 46.0 °F 39.0 °F 39.0 °F 76% 29.49 in 10.0 mi ENE 17.3 mph - N/A   Mostly Cloudy
11:53 AM 45.0 °F 38.9 °F 39.0 °F 80% 29.49 in 10.0 mi East 12.7 mph - N/A   Mostly Cloudy
12:53 PM 46.0 °F 40.6 °F 39.9 °F 79% 29.49 in 10.0 mi ENE 11.5 mph - N/A   Mostly Cloudy
1:53 PM 48.9 °F - 41.0 °F 74% 29.49 in 10.0 mi ENE 9.2 mph - N/A   Mostly Cloudy
2:53 PM 51.1 °F - 42.1 °F 71% 29.49 in 10.0 mi NE 6.9 mph - N/A   Mostly Cloudy
3:53 PM 51.1 °F - 42.1 °F 71% 29.48 in 10.0 mi NE 8.1 mph - N/A   Scattered Clouds
4:53 PM 48.0 °F - 41.0 °F 77% 29.48 in 10.0 mi ENE 8.1 mph - N/A   Mostly Cloudy
5:53 PM 48.9 °F - 41.0 °F 74% 29.48 in 10.0 mi NE 9.2 mph - N/A   Mostly Cloudy
6:53 PM 48.9 °F - 42.1 °F 77% 29.48 in 10.0 mi NE 4.6 mph - N/A   Mostly Cloudy
7:53 PM 46.9 °F - 41.0 °F 80% 29.47 in 10.0 mi NNE 3.5 mph - N/A   Overcast
8:53 PM 48.0 °F - 42.1 °F 80% 29.47 in 10.0 mi Calm Calm - N/A   Mostly Cloudy
9:53 PM 48.0 °F - 42.1 °F 80% 29.48 in 10.0 mi Calm Calm - N/A   Overcast
10:53 PM 46.0 °F 43.9 °F 39.9 °F 79% 29.47 in 10.0 mi North 4.6 mph - N/A   Mostly Cloudy
11:53 PM 44.1 °F 41.5 °F 39.9 °F 85% 29.47 in 10.0 mi NNW 4.6 mph - N/A   Mostly Cloudy